K5TWC Weather Reports


time (UTC)temp
C
wind
direction
speed
KPH
gust
KPH
rain 1hr
cm
rain 24hr
cm
rain mn
cm
humidity
%
barometer
mb
20210723144514 30 267 1.6 19.3 0.00 0.00 0.00 73 1018.5
20210723143024 30 51 1.6 9.7 0.00 0.00 0.00 74 1018.4
20210723141530 28 304 0.0 14.5 0.00 0.00 0.00 76 1018.3
20210723140008 28 171 3.2 9.7 0.00 0.00 0.00 75 1018.3
20210723134512 28 130 0.0 8.0 0.00 0.00 0.00 77 1018.3
20210723133208 27 227 1.6 6.4 0.00 0.00 0.00 77 1018.2
20210723131624 27 275 0.0 8.0 0.00 0.00 0.00 79 1018.2
20210723130150 27 220 0.0 6.4 0.00 0.00 0.00 80 1018.0
20210723124756 26 262 0.0 4.8 0.00 0.00 0.00 83 1018.0
20210723123154 25 259 0.0 4.8 0.00 0.00 0.00 86 1018.0
20210723121745 24 273 0.0 1.6 0.00 0.00 0.00 88 1017.9
20210723120143 23 273 0.0 1.6 0.00 0.00 0.00 89 1017.8
20210723114740 23 273 0.0 0.0 0.00 0.00 0.00 89 1017.8
20210723113131 23 273 0.0 3.2 0.00 0.00 0.00 88 1017.7
20210723111646 23 249 0.0 4.8 0.00 0.00 0.00 89 1017.4
20210723110205 23 248 0.0 1.6 0.00 0.00 0.00 89 1017.3
20210723104733 23 248 0.0 1.6 0.00 0.00 0.00 89 1017.3
20210723103213 23 248 0.0 0.0 0.00 0.00 0.00 88 1017.4
20210723101642 23 247 0.0 1.6 0.00 0.00 0.00 88 1017.3
20210723100240 24 247 0.0 1.6 0.00 0.00 0.00 87 1017.3
20210723094717 24 247 0.0 4.8 0.00 0.00 0.00 87 1017.3
20210723093113 24 248 0.0 3.2 0.00 0.00 0.00 87 1017.2
20210723091602 24 248 0.0 1.6 0.00 0.00 0.00 86 1017.2
20210723090118 25 249 0.0 1.6 0.00 0.00 0.00 86 1017.2
20210723084645 25 248 0.0 6.4 0.00 0.00 0.00 85 1017.2
20210723083048 25 220 0.0 3.2 0.00 0.00 0.00 85 1017.3
20210723081625 25 220 0.0 1.6 0.00 0.00 0.00 84 1017.3
20210723080135 25 220 0.0 3.2 0.00 0.00 0.00 83 1017.3
20210723074549 25 130 0.0 9.7 0.00 0.00 0.00 83 1017.3
20210723073103 25 179 0.0 6.4 0.00 0.00 0.00 82 1017.3
20210723071649 26 250 0.0 4.8 0.00 0.00 0.00 81 1017.2
20210723070105 26 259 0.0 6.4 0.00 0.00 0.00 81 1017.2
20210723064622 26 305 0.0 4.8 0.00 0.00 0.00 81 1017.1
20210723063052 26 42 0.0 4.8 0.00 0.00 0.00 80 1017.0
20210723061551 26 221 1.6 6.4 0.00 0.00 0.00 80 1016.9
20210723060135 27 246 0.0 6.4 0.00 0.00 0.00 79 1017.0
20210723054557 27 177 0.0 11.3 0.00 0.00 0.00 78 1016.9
20210723053102 27 234 0.0 12.9 0.00 0.00 0.00 78 1017.0
20210723051526 27 212 0.0 6.4 0.00 0.00 0.00 77 1016.9
20210723050112 27 222 0.0 6.4 0.00 0.00 0.00 77 1016.8
20210723044603 28 209 0.0 6.4 0.00 0.00 0.00 77 1016.7
20210723043046 28 209 0.0 6.4 0.00 0.00 0.00 76 1016.6
20210723041537 28 217 0.0 6.4 0.00 0.00 0.00 75 1016.7
20210723040020 28 222 0.0 6.4 0.00 0.00 0.00 75 1016.7
20210723034528 28 119 1.6 8.0 0.00 0.00 0.00 75 1016.7
20210723033018 28 121 1.6 11.3 0.00 0.00 0.00 75 1016.7
20210723031517 28 121 3.2 11.3 0.00 0.00 0.00 74 1016.7
20210723030031 28 118 1.6 12.9 0.00 0.00 0.00 74 1016.7
20210723024515 29 109 1.6 8.0 0.00 0.00 0.00 74 1016.4
20210723023023 29 112 1.6 8.0 0.00 0.00 0.00 72 1016.4
20210723021538 29 109 1.6 8.0 0.00 0.00 0.00 72 1016.3
20210723020011 30 104 1.6 8.0 0.00 0.00 0.00 70 1016.2
20210723014559 30 113 1.6 8.0 0.00 0.00 0.00 70 1016.0
20210723013009 30 136 1.6 9.7 0.00 0.00 0.00 69 1016.1
20210723011508 31 167 3.2 16.1 0.00 0.00 0.00 68 1016.2
20210723010019 31 144 0.0 9.7 0.00 0.00 0.00 66 1016.1
20210723004510 31 131 3.2 11.3 0.00 0.00 0.00 65 1015.7
20210723003010 32 165 6.4 17.7 0.00 0.00 0.00 63 1015.6
20210723001508 32 113 4.8 16.1 0.00 0.00 0.00 61 1015.4
20210723000007 33 157 6.4 14.5 0.00 0.00 0.00 60 1015.4
20210722234510 33 150 4.8 16.1 0.00 0.00 0.00 58 1015.2
20210722233011 33 96 4.8 20.9 0.00 0.00 0.00 56 1015.4
20210722231502 33 120 4.8 12.9 0.00 0.00 0.00 56 1015.4
20210722230008 33 134 3.2 19.3 0.00 0.00 0.00 57 1015.4
20210722224501 33 137 3.2 11.3 0.00 0.00 0.00 56 1015.6
20210722223254 33 126 3.2 14.5 0.00 0.00 0.00 57 1015.7
20210722221710 33 134 3.2 12.9 0.00 0.00 0.00 57 1015.7
20210722220158 33 138 4.8 12.9 0.00 0.00 0.00 57 1015.7
20210722214806 33 138 4.8 16.1 0.00 0.00 0.00 58 1016.0
20210722213148 33 157 3.2 16.1 0.00 0.00 0.00 56 1016.2
20210722211741 33 126 4.8 16.1 0.00 0.00 0.00 56 1016.3
20210722210210 33 138 3.2 11.3 0.00 0.00 0.00 55 1016.4
20210722204702 33 136 1.6 14.5 0.00 0.00 0.00 56 1016.6
20210722203135 33 148 6.4 16.1 0.00 0.00 0.00 57 1016.8
20210722201637 34 104 3.2 14.5 0.00 0.00 0.00 55 1017.0
20210722200206 34 135 3.2 12.9 0.00 0.00 0.00 55 1017.2
20210722194652 33 113 4.8 19.3 0.00 0.00 0.00 58 1017.3
20210722193127 33 119 8.0 16.1 0.00 0.00 0.00 57 1017.3
20210722191639 33 117 6.4 16.1 0.00 0.00 0.00 56 1017.6
20210722190132 33 119 1.6 17.7 0.00 0.00 0.00 57 1017.8
20210722184748 34 111 1.6 11.3 0.00 0.00 0.00 57 1017.8
20210722183209 33 171 0.0 14.5 0.00 0.00 0.00 56 1017.9
20210722181747 33 134 4.8 12.9 0.00 0.00 0.00 58 1018.1
20210722180100 33 182 3.2 14.5 0.00 0.00 0.00 58 1018.3
20210722174637 33 130 3.2 17.7 0.00 0.00 0.00 59 1018.4
20210722173130 33 126 6.4 17.7 0.00 0.00 0.00 60 1018.4
20210722171554 32 113 4.8 16.1 0.00 0.00 0.00 61 1018.6
20210722170130 32 131 3.2 12.9 0.00 0.00 0.00 61 1018.8
20210722164550 32 145 4.8 12.9 0.00 0.00 0.00 61 1018.8
20210722163054 32 130 3.2 14.5 0.00 0.00 0.00 62 1018.9
20210722161638 32 130 4.8 16.1 0.00 0.00 0.00 64 1018.8
20210722160124 32 107 1.6 14.5 0.00 0.00 0.00 62 1018.8
20210722154629 32 113 4.8 12.9 0.00 0.00 0.00 62 1018.7
20210722153051 31 113 1.6 12.9 0.00 0.00 0.00 67 1018.6
20210722151623 32 108 1.6 6.4 0.00 0.00 0.00 66 1018.5
20210722150039 31 107 0.0 4.8 0.00 0.00 0.00 67 1018.5